Wind_Speed
11 20 22 19 6 3 4 4 9 14 13 27 27 17 15 18 2 5 30 22 28 30 29 27 25 24 22 20 18 16 16 15 14 13 13 12 11 13 14 13 12 12 13 14 15 15 15 17 19
13 19 14 7 4 3 6 7 12 13 22 30 24 24 17 9 24 35 34 23 29 31 30 28 25 23 21 19 17 15 15 14 14 12 12 13 13 14 13 12 11 11 12 13 13 13 13 16 18
14 10 10 3 2 5 6 10 9 16 23 22 10 18 11 15 31 32 34 27 29 30 28 27 25 22 20 18 15 15 14 13 13 13 13 13 12 13 13 11 10 10 11 12 12 13 15 16 18
3 6 7 4 8 7 5 6 10 15 18 24 20 12 18 27 34 35 29 25 26 26 27 26 24 20 17 16 14 14 14 14 14 12 12 12 11 11 12 10 9 10 10 9 9 9 10 12 15
8 4 3 2 7 7 3 11 14 16 20 22 33 20 27 29 37 33 29 24 27 23 26 24 20 18 17 16 15 15 14 13 12 12 11 11 10 9 8 7 7 7 7 7 6 6 7 8 11
8 1 1 3 10 17 5 13 13 19 22 26 30 26 16 35 38 32 28 33 23 21 24 23 21 18 17 16 16 15 14 12 10 9 8 8 8 7 6 4 3 2 3 3 4 5 5 6 7
13 3 4 6 6 7 4 18 7 1 25 20 26 17 22 32 35 32 28 38 30 24 24 22 21 19 17 16 15 14 12 10 9 8 8 7 7 7 7 6 4 1 1 2 3 3 4 4 5
7 4 9 3 10 8 8 8 6 4 18 29 37 7 17 40 31 31 32 30 20 19 24 24 20 18 17 17 15 13 11 9 6 5 6 5 3 3 2 2 3 3 2 4 4 5 6 6 6
10 5 5 5 8 7 20 9 10 16 14 9 5 30 34 35 29 30 33 23 21 16 21 22 20 18 17 16 14 11 10 8 6 4 4 5 1 6 7 4 5 4 3 6 6 5 5 6 8
4 3 9 9 7 9 15 16 15 10 16 25 26 26 31 34 33 31 29 32 32 21 17 16 14 13 14 13 11 9 8 7 5 4 5 6 9 12 9 13 5 3 1 3 7 4 6 7 7
4 4 1 11 14 13 21 16 13 11 5 28 32 30 32 35 31 34 31 35 31 21 20 13 10 8 10 8 9 9 8 9 8 7 7 8 11 15 13 10 5 5 1 4 4 10 8 6 7
5 36 45 12 18 12 9 14 6 12 11 32 34 34 31 24 25 30 34 29 32 25 21 14 15 12 14 9 12 13 14 11 10 11 12 12 12 10 16 14 10 7 7 3 11 9 11 11 10
19 26 16 33 30 17 13 10 8 17 31 30 32 31 31 27 23 21 19 25 24 22 22 18 20 20 17 16 15 16 15 15 14 14 14 14 12 10 7 12 15 9 6 10 13 11 18 19 11
18 36 21 6 19 28 12 8 11 18 27 28 32 30 29 28 26 26 24 22 23 22 23 20 23 22 18 17 15 17 17 15 15 16 15 9 11 9 8 7 12 15 13 16 17 16 15 13 16
31 25 15 10 12 10 23 4 8 15 27 26 27 29 26 27 24 26 26 24 24 22 22 21 23 22 19 18 19 22 22 18 17 16 11 10 13 10 8 8 12 18 17 16 15 13 18 12 10
8 8 4 4 3 10 5 0 4 19 22 23 25 27 28 25 24 24 21 21 23 22 25 23 21 19 18 19 18 16 19 20 14 10 11 12 15 13 14 16 15 13 16 17 15 17 13 16 14
8 3 8 7 3 7 9 3 8 5 18 19 26 26 28 26 26 25 23 22 23 24 24 23 22 20 18 14 15 13 8 11 11 8 9 12 15 15 15 14 12 5 8 13 15 15 16 18 13
8 3 7 7 2 6 13 16 14 18 8 18 22 28 29 28 30 27 23 25 23 24 23 23 21 19 17 16 14 14 13 12 13 12 13 15 15 14 14 12 10 10 12 14 17 17 18 19 13
8 12 13 9 8 7 5 12 15 16 19 13 22 26 23 30 31 28 27 26 28 28 26 22 21 19 19 18 18 16 15 13 15 16 15 15 15 13 13 13 13 15 16 17 18 21 18 14 12
8 8 8 13 11 10 16 15 11 11 13 24 24 29 27 27 31 31 27 29 30 31 23 25 22 21 22 20 17 12 12 13 12 12 13 15 9 13 13 13 14 17 18 19 20 20 17 17 13
8 6 7 11 12 19 12 3 6 7 23 33 11 20 32 27 33 35 31 31 29 31 28 25 24 23 20 20 17 15 14 17 14 14 13 11 11 12 11 11 13 13 14 16 17 17 19 16 13
8 5 22 19 11 7 19 4 10 10 22 8 13 17 28 32 31 37 33 29 33 31 28 26 24 17 16 19 21 20 15 13 9 9 9 11 11 11 11 13 18 14 14 13 14 14 16 16 13
12 19 22 22 5 7 2 4 4 4 5 6 14 18 15 38 35 38 37 30 32 30 32 27 22 15 12 15 19 21 19 16 12 10 11 10 11 11 14 18 18 15 12 12 8 11 12 18 19
5 3 7 5 1 5 0 4 4 5 9 9 9 14 25 24 35 38 35 33 31 29 31 28 22 17 14 14 16 22 21 17 14 14 13 13 13 13 13 15 15 13 13 12 8 7 8 11 13
1 5 4 6 5 2 6 3 7 8 9 15 7 13 41 37 30 30 28 32 26 32 32 30 26 22 18 15 17 18 19 17 17 15 14 14 15 16 14 13 14 13 13 12 9 7 8 10 12
5 5 4 4 3 5 3 3 1 18 23 28 33 28 43 14 24 22 2 4 19 32 33 32 29 22 17 14 17 16 15 17 19 18 15 16 15 17 14 16 15 12 14 10 11 10 8 10 9
6 2 5 4 3 0 3 2 9 16 18 26 6 18 35 29 30 51 39 19 30 29 30 26 23 14 11 9 9 13 17 17 18 16 15 16 20 19 17 16 17 12 13 9 10 8 15 15 9
8 10 4 3 4 3 6 4 3 11 20 22 13 10 24 31 30 29 18 22 26 21 19 20 15 11 7 9 11 14 16 13 11 11 12 13 15 17 17 16 13 12 16 17 16 13 19 16 11
6 5 6 7 5 6 2 3 5 13 12 4 19 31 18 19 24 23 22 18 22 23 21 17 13 9 7 6 6 9 11 8 10 12 13 14 15 14 14 14 16 21 20 21 21 16 37 22 15
10 8 9 5 6 6 6 4 10 11 16 18 1 13 15 16 21 22 18 17 16 14 12 9 8 4 4 4 4 3 2 1 1 2 6 8 10 10 10 10 9 9 15 14 10 17 10 5 11
Wind_Direction
107 69 55 83 41 28 327 43 79 83 73 66 66 78 80 39 185 155 138 149 156 153 153 151 147 143 139 128 123 122 122 121 115 111 103 98 93 108 112 113 107 105 104 102 107 109 111 116 115
84 92 87 60 59 51 341 305 79 90 105 91 70 88 61 72 102 131 138 162 158 152 153 150 149 147 140 134 126 125 123 120 117 113 107 99 93 103 108 107 105 103 106 110 113 114 111 114 116
110 178 140 141 83 182 166 260 123 82 66 105 84 87 73 109 121 132 148 158 154 153 153 152 151 148 145 141 135 127 123 121 117 115 111 108 100 99 104 109 103 103 106 104 111 115 114 115 116
86 85 116 156 159 242 211 90 64 89 83 95 109 77 113 131 133 141 144 150 155 156 155 154 153 152 150 147 142 132 128 119 119 120 114 109 110 106 107 105 102 107 114 113 113 122 127 124 125
174 106 107 244 109 2 97 82 82 116 112 101 101 113 119 136 141 144 151 151 156 157 159 158 160 157 154 150 146 141 134 129 130 129 126 123 116 109 103 105 111 104 104 118 121 130 142 138 136
243 259 351 207 118 123 50 58 43 119 111 114 104 117 128 143 145 149 151 151 160 152 167 164 161 158 158 156 153 146 145 142 139 133 134 127 125 121 107 100 86 104 122 126 153 166 157 152 157
247 144 293 123 110 93 129 102 125 0 119 123 120 111 139 143 149 151 156 163 165 160 164 170 166 165 166 163 160 160 155 149 148 147 145 139 143 149 155 153 137 56 286 225 207 217 217 219 189
226 77 337 303 133 122 147 121 209 188 122 146 143 151 153 152 152 156 151 154 164 170 170 173 174 173 173 168 169 170 163 159 160 164 154 178 152 152 180 186 144 123 0 307 288 258 245 236 229
121 80 331 289 107 139 150 136 140 124 98 102 125 157 148 154 149 153 160 166 176 173 170 171 179 177 178 178 181 180 176 178 188 186 213 218 316 314 279 297 239 305 0 317 305 291 277 255 247
93 103 169 76 106 141 172 143 120 106 117 108 113 139 147 158 153 156 158 150 167 166 165 173 173 184 189 188 196 202 202 215 221 221 227 243 275 308 287 225 263 278 76 315 294 286 309 286 253
147 183 198 74 79 132 94 91 121 125 110 132 139 150 157 158 160 162 165 162 175 177 171 176 174 176 174 180 195 218 234 242 238 250 238 273 286 286 262 243 238 221 161 328 310 301 287 319 215
171 38 345 31 82 92 129 137 139 142 152 139 143 148 159 170 173 168 170 170 175 168 182 190 190 185 182 208 223 245 263 270 260 263 260 278 281 293 249 264 253 252 267 274 296 282 270 265 253
57 81 24 43 15 351 99 139 120 121 128 138 147 155 165 168 177 174 167 169 168 172 188 191 185 191 197 204 222 241 260 265 267 269 273 280 277 283 291 237 237 217 226 255 263 283 287 284 255
97 83 62 49 309 309 351 136 112 133 134 142 151 164 173 175 181 173 182 184 179 182 183 184 186 192 200 219 230 242 255 260 272 271 273 279 297 274 270 267 236 224 233 247 243 250 282 279 237
97 99 151 160 266 282 347 51 121 144 139 148 160 167 176 182 185 180 186 184 191 185 187 196 195 203 221 240 251 257 262 268 270 265 261 281 294 286 281 266 239 237 244 248 253 261 277 268 257
58 93 334 207 225 291 18 63 14 143 149 160 171 175 178 191 189 181 187 190 192 188 191 200 205 211 230 245 259 278 270 262 271 267 249 265 271 277 286 271 270 253 251 235 245 257 256 267 271
26 74 296 295 176 262 37 9 341 306 171 178 173 179 183 191 188 187 188 193 199 192 192 197 211 220 240 251 260 258 269 258 261 257 247 262 276 272 267 275 277 236 238 231 250 248 260 277 271
186 140 237 267 31 123 8 351 333 320 304 191 179 177 187 191 189 184 190 189 187 186 193 195 209 222 233 249 252 257 262 272 269 261 259 262 270 272 261 267 267 244 226 244 257 257 267 272 274
159 125 163 317 246 149 167 173 265 288 316 270 182 175 188 191 192 187 191 193 196 198 199 207 214 217 222 227 237 245 261 264 268 263 264 263 259 251 253 260 267 250 242 243 255 260 260 255 265
168 143 221 224 252 154 161 203 255 346 322 296 195 181 192 196 188 189 192 197 200 205 206 206 208 211 222 231 241 254 267 264 266 256 253 257 261 243 251 261 278 271 254 251 253 254 253 249 247
132 145 233 229 252 187 156 261 217 185 241 260 219 199 192 200 187 190 195 199 206 208 205 205 206 216 227 229 227 232 243 252 256 259 261 280 252 248 254 268 273 275 266 258 262 252 244 245 243
130 171 257 246 234 155 180 127 223 200 217 218 254 245 205 195 194 188 187 197 206 210 204 204 210 224 230 221 223 224 238 255 264 270 276 264 246 256 260 258 266 264 260 270 280 255 243 240 232
211 191 225 240 263 134 65 90 207 281 292 238 259 254 260 192 197 185 189 192 204 209 202 205 211 221 230 233 226 225 234 248 265 256 255 245 256 254 252 250 262 261 258 267 266 255 251 244 237
348 28 334 279 270 84 89 93 201 200 217 240 241 282 283 222 194 192 193 192 196 207 207 208 208 218 223 229 221 222 233 245 246 248 255 252 255 261 263 259 261 266 261 256 259 259 254 249 243
0 50 341 6 29 281 16 77 239 257 196 201 219 128 254 259 186 183 185 189 193 203 200 211 209 206 214 230 234 226 232 237 245 251 258 260 263 260 266 267 269 267 266 249 246 249 262 252 237
190 189 144 172 220 246 321 191 270 77 48 319 292 201 230 168 105 57 90 208 320 199 199 206 202 202 207 227 239 239 239 241 246 249 259 259 256 262 264 263 272 264 263 251 243 257 269 232 225
158 121 108 123 164 272 225 159 40 56 31 312 300 94 104 128 141 197 217 168 221 191 191 197 190 191 208 228 227 234 247 251 241 235 242 245 245 251 254 253 255 261 267 242 234 252 266 247 237
184 159 122 339 102 294 293 3 112 101 127 260 316 47 108 125 149 175 159 200 137 133 135 150 158 178 225 232 230 234 244 263 272 275 274 275 274 265 263 259 254 278 291 249 215 281 262 243 215
240 187 70 107 143 163 258 83 190 176 198 264 323 328 100 115 133 137 121 129 130 135 142 145 159 181 215 229 220 240 269 274 276 277 275 272 276 279 280 289 266 284 282 268 283 285 252 227 211
201 214 179 135 205 221 158 153 145 160 168 171 262 320 112 112 113 119 118 117 124 133 141 153 163 185 270 254 248 236 253 270 324 308 306 294 290 298 305 310 315 310 292 284 249 264 229 239 216
Height
1495 1500 1499 1491 1512 1514 1513 1492 1473 1479 1483 1484 1484 1486 1496 1496 1496 1517 1517 1523 1526 1530 1534 1538 1542 1545 1548 1550 1552 1554 1555 1557 1558 1558 1559 1561 1563 1563 1564 1564 1565 1566 1567 1568 1569 1570 1571 1572 1574
1497 1497 1492 1503 1519 1530 1515 1493 1483 1482 1485 1484 1488 1492 1496 1507 1502 1511 1518 1524 1528 1531 1536 1539 1543 1546 1549 1551 1554 1556 1557 1558 1559 1560 1561 1563 1564 1565 1565 1566 1567 1569 1569 1570 1571 1572 1572 1574 1576
1492 1495 1501 1506 1519 1525 1518 1493 1485 1485 1489 1486 1492 1493 1501 1512 1514 1515 1521 1524 1530 1534 1537 1541 1544 1547 1550 1553 1555 1557 1559 1560 1560 1561 1562 1564 1566 1567 1567 1568 1569 1570 1572 1572 1572 1574 1574 1575 1577
1490 1492 1499 1507 1514 1504 1494 1487 1484 1489 1493 1493 1492 1500 1509 1509 1514 1520 1523 1527 1531 1535 1539 1543 1546 1549 1551 1554 1556 1559 1560 1561 1561 1562 1564 1565 1567 1568 1568 1568 1569 1571 1573 1574 1574 1575 1575 1577 1579
1489 1490 1501 1503 1499 1499 1486 1485 1484 1492 1493 1496 1496 1509 1512 1517 1516 1521 1525 1529 1531 1536 1541 1545 1548 1550 1553 1555 1557 1559 1560 1561 1562 1563 1565 1566 1567 1568 1569 1569 1570 1572 1573 1574 1575 1575 1576 1577 1578
1490 1487 1497 1502 1494 1493 1489 1487 1488 1490 1493 1497 1502 1508 1514 1519 1520 1523 1526 1529 1531 1537 1541 1545 1548 1551 1553 1555 1558 1559 1561 1562 1563 1564 1565 1567 1568 1568 1569 1569 1571 1572 1573 1575 1575 1575 1575 1577 1578
1488 1491 1495 1490 1493 1491 1491 1490 1492 1492 1494 1500 1504 1510 1517 1521 1523 1525 1529 1531 1536 1538 1541 1545 1548 1551 1553 1556 1558 1559 1561 1562 1563 1563 1565 1567 1568 1568 1567 1568 1569 1571 1572 1574 1575 1575 1575 1575 1577
1484 1486 1494 1483 1491 1497 1491 1488 1491 1492 1494 1498 1500 1510 1515 1519 1523 1525 1530 1535 1538 1542 1542 1544 1548 1551 1554 1556 1558 1559 1561 1562 1562 1563 1565 1566 1567 1568 1568 1569 1569 1569 1571 1573 1574 1574 1574 1574 1575
1478 1495 1501 1489 1485 1489 1487 1488 1489 1490 1494 1497 1499 1501 1511 1517 1523 1526 1530 1534 1536 1542 1542 1544 1548 1551 1553 1556 1558 1559 1561 1562 1562 1563 1564 1566 1567 1568 1568 1569 1569 1569 1569 1571 1573 1573 1573 1572 1572
1477 1493 1492 1473 1476 1483 1485 1485 1487 1491 1492 1499 1503 1509 1514 1517 1522 1526 1529 1532 1536 1539 1541 1544 1548 1551 1553 1556 1558 1559 1561 1562 1562 1563 1564 1565 1565 1565 1566 1567 1568 1567 1567 1570 1571 1574 1573 1571 1571
1476 1488 1475 1474 1477 1480 1484 1487 1487 1491 1497 1496 1501 1508 1513 1518 1521 1524 1527 1529 1532 1535 1539 1542 1546 1549 1552 1555 1557 1558 1560 1561 1561 1561 1562 1563 1563 1562 1563 1563 1564 1565 1566 1569 1570 1572 1571 1569 1570
1478 1488 1501 1478 1479 1481 1485 1488 1490 1490 1493 1497 1503 1508 1513 1517 1521 1524 1526 1529 1533 1536 1539 1543 1545 1547 1550 1551 1554 1555 1557 1559 1560 1561 1561 1561 1562 1561 1560 1560 1561 1563 1565 1567 1568 1568 1568 1568 1568
1484 1491 1506 1479 1488 1491 1486 1489 1490 1492 1494 1499 1505 1511 1514 1517 1520 1523 1527 1530 1533 1536 1538 1541 1543 1545 1548 1551 1552 1555 1556 1557 1559 1559 1559 1560 1560 1560 1559 1559 1560 1561 1563 1566 1567 1565 1564 1564 1565
1494 1492 1504 1507 1499 1506 1496 1491 1490 1496 1497 1503 1507 1511 1513 1516 1519 1522 1525 1529 1531 1534 1536 1539 1543 1545 1548 1549 1551 1553 1554 1556 1556 1556 1557 1557 1557 1558 1558 1558 1558 1559 1561 1563 1563 1562 1563 1561 1562
1492 1502 1514 1501 1500 1502 1496 1493 1495 1497 1499 1504 1508 1511 1514 1515 1518 1520 1523 1527 1529 1533 1537 1539 1541 1544 1546 1548 1549 1550 1552 1553 1553 1553 1554 1555 1555 1556 1556 1557 1557 1558 1559 1560 1559 1558 1558 1558 1560
1493 1499 1520 1499 1503 1500 1503 1509 1496 1498 1502 1506 1510 1512 1514 1516 1518 1520 1523 1525 1528 1531 1534 1537 1539 1542 1544 1545 1546 1548 1548 1549 1551 1551 1551 1552 1553 1554 1554 1555 1555 1555 1556 1556 1556 1556 1556 1556 1556
1503 1524 1527 1513 1504 1506 1508 1512 1502 1501 1501 1503 1507 1512 1513 1514 1516 1519 1521 1524 1526 1529 1532 1535 1535 1538 1541 1543 1544 1546 1546 1547 1548 1547 1547 1548 1549 1549 1550 1551 1553 1552 1553 1554 1554 1553 1553 1553 1554
1514 1519 1516 1513 1505 1504 1521 1512 1506 1503 1504 1503 1504 1507 1511 1512 1513 1515 1517 1521 1522 1527 1530 1533 1535 1535 1538 1540 1542 1543 1543 1543 1542 1543 1544 1545 1545 1545 1546 1547 1549 1550 1551 1551 1551 1551 1551 1550 1550
1493 1501 1507 1499 1494 1510 1520 1513 1501 1499 1505 1505 1502 1504 1507 1510 1511 1513 1515 1517 1520 1523 1526 1529 1530 1532 1534 1536 1538 1539 1539 1540 1540 1540 1541 1541 1540 1541 1542 1544 1545 1547 1547 1547 1548 1549 1549 1547 1547
1491 1499 1503 1495 1489 1501 1518 1516 1508 1497 1510 1507 1496 1497 1500 1504 1508 1511 1514 1515 1517 1519 1523 1525 1526 1527 1529 1532 1535 1537 1537 1537 1538 1538 1538 1538 1537 1539 1540 1540 1542 1543 1543 1544 1544 1544 1545 1544 1544
1492 1504 1495 1496 1483 1490 1517 1538 1525 1508 1501 1504 1488 1490 1493 1496 1499 1504 1508 1511 1513 1515 1519 1521 1524 1526 1527 1530 1533 1534 1535 1535 1535 1535 1535 1535 1536 1536 1536 1537 1538 1540 1539 1540 1540 1540 1539 1540 1541
1497 1479 1475 1479 1486 1513 1503 1535 1522 1509 1495 1476 1477 1483 1488 1489 1492 1496 1502 1506 1507 1511 1514 1517 1520 1523 1526 1529 1530 1530 1531 1532 1533 1533 1533 1533 1533 1533 1533 1533 1535 1536 1536 1536 1536 1536 1536 1537 1538
1479 1466 1473 1472 1475 1488 1491 1514 1508 1497 1491 1471 1466 1477 1485 1484 1486 1489 1495 1498 1501 1506 1510 1513 1516 1519 1522 1524 1527 1527 1528 1529 1530 1531 1531 1531 1531 1531 1532 1532 1533 1533 1534 1535 1534 1533 1533 1534 1537
1456 1458 1460 1465 1476 1522 1507 1508 1509 1502 1487 1474 1473 1481 1482 1485 1487 1488 1490 1492 1497 1502 1507 1510 1512 1515 1517 1520 1522 1524 1526 1528 1528 1528 1528 1529 1530 1530 1531 1530 1530 1530 1531 1532 1532 1533 1532 1532 1534
1462 1477 1514 1523 1518 1526 1501 1507 1496 1472 1472 1471 1483 1488 1478 1480 1487 1488 1494 1499 1498 1499 1503 1505 1508 1510 1513 1515 1518 1522 1524 1525 1526 1527 1526 1527 1528 1527 1528 1529 1529 1529 1529 1530 1531 1532 1533 1532 1532
1462 1473 1512 1533 1532 1528 1498 1505 1491 1487 1484 1491 1491 1490 1487 1493 1478 1496 1505 1503 1502 1497 1498 1503 1506 1510 1513 1514 1515 1519 1521 1522 1523 1523 1525 1524 1525 1526 1526 1526 1526 1524 1524 1525 1528 1530 1532 1532 1531
1462 1479 1469 1503 1504 1517 1499 1486 1481 1485 1492 1489 1478 1478 1476 1481 1483 1488 1502 1512 1494 1498 1500 1505 1508 1510 1512 1513 1514 1517 1518 1518 1516 1516 1517 1520 1521 1522 1522 1521 1522 1523 1524 1514 1525 1526 1529 1531 1532
1450 1458 1498 1507 1532 1536 1520 1508 1511 1508 1505 1491 1478 1484 1479 1481 1487 1495 1501 1508 1501 1499 1502 1506 1507 1507 1509 1511 1513 1514 1515 1516 1517 1515 1518 1518 1517 1518 1518 1518 1519 1520 1519 1518 1522 1522 1525 1529 1528
1452 1467 1470 1492 1510 1520 1533 1517 1501 1497 1494 1497 1500 1499 1486 1485 1488 1492 1498 1496 1495 1498 1501 1503 1505 1506 1508 1510 1513 1514 1514 1515 1515 1515 1515 1514 1515 1515 1515 1516 1517 1518 1517 1517 1517 1516 1512 1524 1524
1431 1445 1453 1489 1503 1500 1498 1516 1495 1493 1491 1491 1488 1493 1490 1489 1490 1491 1492 1492 1495 1498 1501 1503 1505 1506 1508 1509 1511 1512 1512 1513 1514 1514 1513 1512 1512 1513 1513 1514 1515 1515 1514 1512 1513 1514 1515 1515 1520